Regional Weather Roundup
Issued by NWS

Home | Current Version | Previous Version | Text Only | Print | Product List | Glossary On
Versions: 1 2 3 4 5 6 7 8 9 10 11 12 13 14 15 16 17 18 19 20 21 22 23 24 25 26 27 28 29 30 31 32 33 34 35 36 37 38 39 40 41 42 43 44 45 46 47 48 49 50
000
ASHW40 PHFO 231030
RWRHI

WEATHER ROUNDUP FOR HAWAII
NATIONAL WEATHER SERVICE HONOLULU HI
1200 AM HST THU OCT 23 2014

THIS IS AN AUTOMATED REPORT THAT HAS NOT BEEN QUALITY CONTROLLED.

NOTE..."FAIR" INDICATES FEW OR NO CLOUDS BELOW 12,000 FEET WITH NO
SIGNIFICANT WEATHER AND/OR OBSTRUCTIONS TO VISIBILITY.

* - THESE SITES REPORT LIMITED FIELDS

HIZ001>004-231100-
KAUAI-NIIHAU-

CITY           SKY/WX    TMP DP  RH WIND       PRES   REMARKS
LIHUE APT      CLOUDY    78  73  84 E10       30.02F
PORT ALLEN*      N/A     77 N/A N/A E7          N/A
POIPU*           N/A     77 N/A N/A NE5G10      N/A
PRINCEVILLE*     N/A     75 N/A N/A MISG        N/A
KOKOLE POINT*  NOT AVBL
MOLOAA DAIRY*  NOT AVBL
WAIMEA HTS*    NOT AVBL
PUU OPAE*      NOT AVBL
PUU LUA*       NOT AVBL
MAKAHA RIDGE*  NOT AVBL
$$

HIZ005>011-231100-
OAHU-

CITY           SKY/WX    TMP DP  RH WIND       PRES   REMARKS
HONOLULU       PTCLDY    76  74  93 CALM      30.00F
KALAELOA       PTCLDY    74  72  93 CALM      30.02F
KANEOHE MCB    PTCLDY    78  72  81 E5        30.01F
WHEELER FIELD  MOCLDY    72  70  95 W2        30.03F
BELLOWS*       NOT AVBL
KAHUKU*        NOT AVBL
WHEELER*       NOT AVBL
WAIANAE HARBOR NOT AVBL
DILLINGHAM*      N/A     72  72 100 E1          N/A
KAHUKU TRN*      N/A     72  72 100 E6G12       N/A
KAWAILOA*        N/A     72  68  88 SE3G12      N/A
KII*             N/A     79  73  83 E12G17      N/A
MAKUA RANGE*     N/A     75  70  83 SE2G8       N/A
OAHU FOREST NW NOT AVBL
SCHOFIELD BRK*   N/A     72  70  94 MISG        N/A
SCHOFIELD S*   NOT AVBL
WAIANAE VLY*   NOT AVBL
KUAOKALA*      NOT AVBL
HONOULIUULI*   NOT AVBL
MOKUOLOE IS*   NOT AVBL
PALEHUA*       NOT AVBL
WAIAWA PHB*    NOT AVBL
$$

HIZ012>013-231100-
MOLOKAI-

CITY           SKY/WX    TMP DP  RH WIND       PRES   REMARKS
MOLOKAI AIRPT  MOCLDY    72  72 100 W5        30.02F
KALAUPAPA      NOT AVBL
MAKAPULAPAI*   NOT AVBL
MOLOKAI 1*     NOT AVBL
PUU ALII*        N/A     63  63  99 SE2G10      N/A
$$

HIZ016-231100-
KAHOOLAWE-

CITY           SKY/WX    TMP DP  RH WIND       PRES   REMARKS
KAHOOLAWE*     NOT AVBL
HAKIOAWA*      NOT AVBL
HONOKANAIA*      N/A     77  71  81 NE12G18   30.02
KANELOA*         N/A     75  72  88 NE13G22   29.25F
KEALIALALO*    NOT AVBL
LUA MAKIKA*    NOT AVBL
$$

HIZ014>015-231100-
LANAI-

CITY           SKY/WX    TMP DP  RH WIND       PRES   REMARKS
LANAI CITY     NOT AVBL
LANAI 1*       NOT AVBL
$$

HIZ017>028-231100-
MAUI-

CITY           SKY/WX    TMP DP  RH WIND       PRES   REMARKS
KAHULUI        PTCLDY    72  70  93 CALM      30.01F
KAPALUA-W MAUI NOT AVBL
HANA AIRPORT   LGT RAIN  73  72  94 S6        30.05F
HANA*            N/A     75 N/A N/A S3          N/A
HALEAKALA SUMM   N/A     43  43 100 NE12        N/A
MAALAEA BAY*   NOT AVBL
HALEAKALA*     NOT AVBL
KAUPO GAP*     NOT AVBL
KULA 1*          N/A     54  52  92 E6          N/A
$$

HIZ023>026-231100-
BIG ISLAND OF HAWAII COAST AND LOWER SLOPES-

CITY           SKY/WX    TMP DP  RH WIND       PRES   REMARKS
KAILUA KONA    CLEAR     78  71  79 E7        29.98F
HILO           LGT RAIN  75  71  87 SE7       30.03S
HONOKAA*       NOT AVBL
KAWAIHAE MWT*    N/A     81 N/A N/A NE6         N/A
KAWAIHAE*        N/A     81 N/A N/A NE3         N/A
SOUTH POINT*     N/A     70 N/A N/A NE8         N/A
UPOLU AIRPORT*   N/A    N/A N/A N/A E9G15       N/A
KAMUELA*       CLOUDY    66  64  94 NE8       30.14R
HAKALAU*         N/A     54  53  96 W3          N/A
KALOKO-HONOKO*   N/A     75  68  78 NE5       29.98S
PALI 2*          N/A     66 -11   4 N7          N/A
KEALAKOMO*       N/A     79  68  69 N10G17      N/A
KAUPULEHU*     NOT AVBL
KAPAPALA*        N/A     68  67  96 CALM        N/A
LOWER KAHUKU*  NOT AVBL
PUHE CS*       NOT AVBL
PUHO CS*         N/A     74  67  77 E2          N/A
PTA KEAMUKU*     N/A    N/A N/A N/A CALM        N/A
WAIKOLOA*      NOT AVBL
$$

HIZ027>028-231100-
BIG ISLAND OF HAWAII INTERIOR AND SUMMMITS-

CITY           SKY/WX    TMP DP  RH WIND       PRES   REMARKS
BRADSHAW FIELD MOCLDY    55  54  94 S2        30.37F
MK VISITOR CEN NOT AVBL
MAUNA KEA*       N/A     34  25  69 E3          N/A
MAUNA LOA*       N/A    N/A N/A N/A MISG        N/A
MAUNA LOA 1*   NOT AVBL
PTA KIPUKA*      N/A     59  59 100 S1          N/A
PTA RANGE 17*    N/A     57  55  94 CALM        N/A
PTA WEST*        N/A     61  61 100 SE6         N/A
NENE CABIN*      N/A     55  55 100 NE3         N/A
AHUMOA*        NOT AVBL
PTA PORTABLE*  NOT AVBL
PUU MALI*      NOT AVBL
$$

HIC003-231100-
NORTHWEST ISLANDS-

CITY           SKY/WX    TMP DP  RH WIND       PRES   REMARKS
MIDWAY ISLAND  CLEAR     81  79  94 S7        29.95S
MIDWAY NOS*    NOT AVBL
FRENCH FRIGATE NOT AVBL
$$

PHZ110>124-180-231100-
BUOY REPORTS

STATION/POSITION TIME  TEMP    WIND        PRES    WAVE   SWELL
                       AIR SEA DIR/SP/G            HT/PER HT/DIR
                 (UTC) (F)     (DEG/KT/KT) (MB)    (FT/S) (FT/D)
BUOY 51001       NOT AVBL
BUOY 51101       NOT AVBL
BUOY 51100       0900   79      90/ 14     1017.8F
BUOY 51003       1000   81 82  120/ 10/ 14 1015.6F   6/11   5
BUOY 51004       0932   79 81   70/ 12/ 14 1015.0F   6/11   5/360
BARBERS PT BUOY  NOT AVBL
WAIMEA BAY BUOY  1000      82                N/A     4/10   2/360
KAILUA BAY BUOY  1000      82                N/A     4/10   2/360
LANAI BUOY       1000      82                N/A     3/12   3/200
BARBERS PT 2     1000      82                N/A     3/13   2/190
PAUWELA MAUI     1000      81                N/A     4/11   2/360
HILO             1000      81                N/A     6/11   3/360
KANEOHE BAY BUOY NOT AVBL
HANALEI KAUAI    NOT AVBL
KAHULUI HARBOR   1000   76 81  300/  6/  7 1016.1F
HONOLULU HARBOR  1000   77     330/  2/  2 1016.4F
KILO NALU        NOT AVBL
HILO HARBOR      1000   75      90/  5/  8 1016.4R
MOKUOLOE         1000   77     110/  7/ 11   N/A
NAWILIWILI       1000      82                N/A
WHOTS BUOY       NOT AVBL
BUOY 51028       NOT AVBL
$$

......................KEY........................................
  SKY/WX - SKY CONDITIONS/PRESENT WEATHER
  TMP    - TEMPERATURE IN FAHRENHEIT
  DWPT   - DEWPOINT IN FAHRENHEIT
  RH     - RELATIVE HUMIDITY IN PERCENT
  WIND   - DIRECTION AND SPEED /MPH FOR ISLANDS...KTS FOR BUOYS/
  PRES   - MEAN SEA LEVEL PRESSURE IN INCHES OF HG
  VSB    - VISIBILITY IN MILES
  HX     - HEAT INDEX
  WCI    - WIND CHILL INDEX
  VRB    - VARIABLE WIND DIRECTION
  N/A    - NOT AVAILABLE



USA.gov is the U.S. government's official web portal to all federal, state and local government web resources and services.